When you browse on this site, cookies collect data to enhance your experience and personalize the content and advertising you see.
Visit our Privacy Policy to learn more. By continuing to use the site, you agree to this use of cookies and data.
  • In Hungary
  • List of Countries
  • For 7 days
  • Water Temperature
  • Satellite Maps
  • Weather Map
  • News
  • Weather Widgets
  • user-avatar
    Login

    Hourly Weather Bielawy

    Today, 23 May, Thursday

    Time Temperature Precipitation Wind Pressure Humidity
    00:00 +10°C° 0.1 mm 5 mps 754 mmHg 93%
    01:00 +11°C° 0 mm 4 mps 754 mmHg 93%
    02:00 +11°C° 0.1 mm 4 mps 754 mmHg 93%
    03:00 +10°C° 0.1 mm 4 mps 755 mmHg 92%
    04:00 +9°C° 0.1 mm 5 mps 755 mmHg 92%
    05:00 +9°C° 0.1 mm 5 mps 755 mmHg 92%
    06:00 +10°C° 0.1 mm 4 mps 755 mmHg 91%
    07:00 +10°C° 0.1 mm 4 mps 756 mmHg 90%
    08:00 +11°C° 0 mm 4 mps 756 mmHg 87%
    09:00 +11°C° 0 mm 4 mps 756 mmHg 84%
    10:00 +12°C° 0 mm 4 mps 756 mmHg 81%
    11:00 +13°C° 0 mm 4 mps 756 mmHg 75%
    12:00 +14°C° 0 mm 4 mps 756 mmHg 68%
    13:00 +15°C° 0 mm 4 mps 756 mmHg 61%
    14:00 +17°C° 0 mm 3 mps 756 mmHg 61%
    15:00 +17°C° 0 mm 3 mps 756 mmHg 60%
    16:00 +18°C° 0 mm 2 mps 756 mmHg 60%
    17:00 +17°C° 0 mm 2 mps 756 mmHg 63%
    18:00 +16°C° 0 mm 1 mps 756 mmHg 67%
    19:00 +16°C° 0 mm 1 mps 756 mmHg 70%
    20:00 +14°C° 0 mm 1 mps 756 mmHg 74%
    21:00 +13°C° 0 mm 1 mps 756 mmHg 77%
    22:00 +11°C° 0 mm 1 mps 756 mmHg 81%
    23:00 +10°C° 0 mm 1 mps 756 mmHg 80%

    Tomorrow, 24 May, Friday

    Time Temperature Precipitation Wind Pressure Humidity
    00:00 +10°C° 0 mm 1 mps 757 mmHg 80%
    01:00 +9°C° 0 mm 1 mps 757 mmHg 79%
    02:00 +9°C° 0 mm 1 mps 756 mmHg 79%
    03:00 +8°C° 0 mm 1 mps 756 mmHg 78%
    04:00 +8°C° 0 mm 1 mps 756 mmHg 77%
    05:00 +10°C° 0 mm 1 mps 756 mmHg 72%
    06:00 +12°C° 0 mm 1 mps 756 mmHg 67%
    07:00 +14°C° 0 mm 1 mps 756 mmHg 61%
    08:00 +16°C° 0 mm 1 mps 756 mmHg 55%
    09:00 +19°C° 0 mm 1 mps 756 mmHg 49%
    10:00 +21°C° 0 mm 1 mps 755 mmHg 43%
    11:00 +20°C° 0 mm 0 mps 755 mmHg 41%
    12:00 +21°C° 0 mm 0 mps 755 mmHg 38%
    13:00 +22°C° 0 mm 0 mps 755 mmHg 35%
    14:00 +22°C° 0 mm 0 mps 754 mmHg 36%
    15:00 +22°C° 0 mm 0 mps 754 mmHg 36%
    16:00 +24°C° 0 mm 1 mps 753 mmHg 36%
    17:00 +22°C° 0 mm 1 mps 753 mmHg 44%
    18:00 +21°C° 0 mm 1 mps 753 mmHg 51%
    19:00 +19°C° 0 mm 1 mps 753 mmHg 59%
    20:00 +17°C° 0 mm 2 mps 753 mmHg 62%
    21:00 +15°C° 0 mm 2 mps 753 mmHg 65%
    22:00 +14°C° 0 mm 2 mps 753 mmHg 69%
    23:00 +14°C° 0 mm 2 mps 753 mmHg 73%

    Day after tomorrow, 25 May, Saturday

    Time Temperature Precipitation Wind Pressure Humidity
    00:00 +14°C° 0 mm 2 mps 753 mmHg 77%
    01:00 +13°C° 0 mm 2 mps 753 mmHg 81%
    02:00 +13°C° 0 mm 2 mps 753 mmHg 85%
    03:00 +13°C° 0 mm 2 mps 753 mmHg 89%
    04:00 +12°C° 0 mm 2 mps 753 mmHg 93%
    05:00 +13°C° 0 mm 3 mps 753 mmHg 88%
    06:00 +14°C° 0 mm 3 mps 753 mmHg 84%
    07:00 +16°C° 0 mm 3 mps 753 mmHg 79%
    08:00 +17°C° 0 mm 4 mps 754 mmHg 70%
    09:00 +18°C° 0 mm 4 mps 754 mmHg 61%
    10:00 +20°C° 0 mm 4 mps 754 mmHg 52%
    11:00 +20°C° 0 mm 5 mps 754 mmHg 49%
    12:00 +21°C° 0 mm 5 mps 754 mmHg 46%
    13:00 +22°C° 0 mm 5 mps 753 mmHg 43%
    14:00 +22°C° 0 mm 5 mps 753 mmHg 45%
    15:00 +22°C° 0 mm 4 mps 753 mmHg 47%
    16:00 +22°C° 0 mm 4 mps 753 mmHg 48%
    17:00 +20°C° 0 mm 3 mps 753 mmHg 54%
    18:00 +19°C° 0 mm 3 mps 753 mmHg 60%
    19:00 +18°C° 0 mm 2 mps 753 mmHg 65%
    20:00 +16°C° 0 mm 2 mps 753 mmHg 70%
    21:00 +15°C° 0 mm 2 mps 753 mmHg 75%
    22:00 +13°C° 0 mm 2 mps 754 mmHg 80%
    23:00 +11°C° 0 mm 3 mps 753 mmHg 83%

    26 May, Sunday

    Time Temperature Precipitation Wind Pressure Humidity
    00:00 +11°C° 0 mm 3 mps 753 mmHg 87%
    01:00 +10°C° 0 mm 3 mps 753 mmHg 91%
    02:00 +10°C° 0 mm 3 mps 753 mmHg 93%
    03:00 +9°C° 0 mm 3 mps 753 mmHg 94%
    04:00 +8°C° 0 mm 3 mps 753 mmHg 96%
    05:00 +10°C° 0 mm 3 mps 753 mmHg 88%
    06:00 +11°C° 0 mm 3 mps 753 mmHg 80%
    07:00 +12°C° 0 mm 4 mps 753 mmHg 72%
    08:00 +14°C° 0 mm 4 mps 753 mmHg 67%
    09:00 +15°C° 0 mm 4 mps 752 mmHg 62%
    10:00 +17°C° 0 mm 5 mps 752 mmHg 56%
    11:00 +17°C° 0.1 mm 5 mps 752 mmHg 56%
    12:00 +19°C° 0.1 mm 6 mps 752 mmHg 55%
    13:00 +20°C° 0.1 mm 6 mps 752 mmHg 54%
    14:00 +19°C° 0 mm 6 mps 752 mmHg 55%
    15:00 +19°C° 0 mm 5 mps 751 mmHg 56%
    16:00 +19°C° 0 mm 5 mps 751 mmHg 57%
    17:00 +18°C° 0 mm 4 mps 751 mmHg 61%
    18:00 +17°C° 0 mm 3 mps 751 mmHg 64%
    19:00 +17°C° 0 mm 3 mps 751 mmHg 68%
    20:00 +15°C° 0 mm 2 mps 751 mmHg 73%
    21:00 +14°C° 0 mm 2 mps 752 mmHg 78%
    22:00 +12°C° 0 mm 1 mps 752 mmHg 82%
    23:00 +13°C° 0 mm 1 mps 752 mmHg 82%

    27 May, Monday

    Time Temperature Precipitation Wind Pressure Humidity
    00:00 +13°C° 0 mm 2 mps 752 mmHg 81%
    01:00 +14°C° 0 mm 2 mps 752 mmHg 81%
    02:00 +13°C° 0 mm 2 mps 751 mmHg 84%
    03:00 +12°C° 0 mm 2 mps 751 mmHg 87%
    04:00 +12°C° 0 mm 2 mps 750 mmHg 90%
    05:00 +14°C° 0 mm 2 mps 750 mmHg 84%
    06:00 +14°C° 0 mm 3 mps 750 mmHg 77%
    07:00 +17°C° 0 mm 3 mps 750 mmHg 70%
    08:00 +19°C° 0 mm 3 mps 749 mmHg 65%
    09:00 +21°C° 0 mm 4 mps 749 mmHg 60%
    10:00 +22°C° 0 mm 4 mps 749 mmHg 54%
    11:00 +23°C° 0 mm 4 mps 748 mmHg 52%
    12:00 +25°C° 0 mm 5 mps 748 mmHg 49%
    13:00 +26°C° 0 mm 5 mps 747 mmHg 47%
    14:00 +26°C° 0.2 mm 4 mps 747 mmHg 50%
    15:00 +26°C° 0.2 mm 4 mps 747 mmHg 54%
    16:00 +25°C° 0.2 mm 3 mps 746 mmHg 57%
    17:00 +24°C° 0.6 mm 2 mps 746 mmHg 65%
    18:00 +21°C° 0.6 mm 2 mps 746 mmHg 73%
    19:00 +21°C° 0.6 mm 1 mps 746 mmHg 81%
    20:00 +20°C° 0.1 mm 1 mps 746 mmHg 83%
    21:00 +18°C° 0.1 mm 1 mps 746 mmHg 86%
    22:00 +16°C° 0.1 mm 1 mps 746 mmHg 89%
    23:00 +16°C° 0.1 mm 1 mps 746 mmHg 90%

    28 May, Tuesday

    Time Temperature Precipitation Wind Pressure Humidity
    00:00 +16°C° 0.1 mm 1 mps 746 mmHg 91%
    01:00 +15°C° 0.1 mm 1 mps 745 mmHg 92%
    02:00 +14°C° 0.7 mm 0 mps 745 mmHg 93%
    03:00 +14°C° 0.7 mm 0 mps 745 mmHg 95%
    04:00 +14°C° 0.7 mm 0 mps 745 mmHg 96%
    05:00 +15°C° 1.1 mm 1 mps 745 mmHg 96%
    06:00 +16°C° 1.1 mm 1 mps 745 mmHg 96%
    07:00 +16°C° 1.1 mm 1 mps 745 mmHg 96%
    08:00 +16°C° 0.8 mm 1 mps 745 mmHg 94%
    09:00 +18°C° 0.8 mm 1 mps 745 mmHg 93%
    10:00 +18°C° 0.8 mm 1 mps 745 mmHg 91%
    11:00 +19°C° 0.9 mm 1 mps 745 mmHg 88%
    12:00 +21°C° 0.9 mm 1 mps 744 mmHg 84%
    13:00 +22°C° 0.9 mm 1 mps 744 mmHg 81%
    14:00 +22°C° 1.4 mm 1 mps 744 mmHg 79%
    15:00 +22°C° 1.4 mm 1 mps 744 mmHg 78%
    16:00 +20°C° 1.4 mm 0 mps 744 mmHg 76%
    17:00 +20°C° 1.3 mm 0 mps 744 mmHg 80%
    18:00 +21°C° 1.3 mm 1 mps 744 mmHg 84%
    19:00 +20°C° 1.3 mm 1 mps 744 mmHg 88%
    20:00 +19°C° 0.9 mm 1 mps 745 mmHg 90%
    21:00 +18°C° 0.9 mm 1 mps 745 mmHg 91%
    22:00 +17°C° 0.9 mm 2 mps 745 mmHg 93%
    23:00 +16°C° 0.4 mm 2 mps 745 mmHg 94%
    Show more